Time,TemperatureF,DewpointF,PressureIn,WindDirection,WindDirectionDegrees,WindSpeedMPH,WindSpeedGustMPH,Humidity,HourlyPrecipIn,Conditions,Clouds,dailyrainin,SolarRadiationWatts/m^2,SoftwareType,DateUTC
2013-02-17 00:21:00,29.0,14.0,-100.00,ESE,108,3.0,6.0,53,0.00,,,0.00,0.000000,,2013-02-17 07:21:00,
2013-02-17 00:31:00,29.0,14.0,-100.00,ESE,108,3.0,6.0,53,0.00,,,0.00,0.000000,,2013-02-17 07:31:00,
2013-02-17 00:41:00,29.0,14.0,-100.00,ESE,108,3.0,6.0,53,0.00,,,0.00,0.000000,,2013-02-17 07:41:00,
2013-02-17 00:51:00,29.0,14.0,-100.00,ESE,108,3.0,6.0,53,0.00,,,0.00,0.000000,,2013-02-17 07:51:00,
2013-02-17 01:21:00,28.0,13.0,-100.00,ESE,105,3.0,8.0,53,0.00,,,0.00,0.000000,,2013-02-17 08:21:00,
2013-02-17 01:31:00,28.0,13.0,-100.00,ESE,105,3.0,8.0,53,0.00,,,0.00,0.000000,,2013-02-17 08:31:00,
2013-02-17 01:42:00,28.0,13.0,-100.00,ESE,105,3.0,8.0,53,0.00,,,0.00,0.000000,,2013-02-17 08:42:00,
2013-02-17 01:52:00,28.0,13.0,-100.00,ESE,105,3.0,8.0,53,0.00,,,0.00,0.000000,,2013-02-17 08:52:00,
2013-02-17 02:21:00,26.0,9.0,-100.00,East,94,6.0,6.0,49,0.00,,,0.00,0.000000,,2013-02-17 09:21:00,
2013-02-17 02:41:00,26.0,9.0,-100.00,East,94,6.0,6.0,49,0.00,,,0.00,0.000000,,2013-02-17 09:41:00,
2013-02-17 02:51:00,26.0,9.0,-100.00,East,94,6.0,6.0,49,0.00,,,0.00,0.000000,,2013-02-17 09:51:00,
2013-02-17 03:21:00,27.0,11.0,-100.00,ESE,110,4.0,9.0,51,0.00,,,0.00,0.000000,,2013-02-17 10:21:00,
2013-02-17 03:31:00,27.0,11.0,-100.00,ESE,110,4.0,9.0,51,0.00,,,0.00,0.000000,,2013-02-17 10:31:00,
2013-02-17 03:41:00,27.0,11.0,-100.00,ESE,110,4.0,9.0,51,0.00,,,0.00,0.000000,,2013-02-17 10:41:00,
2013-02-17 03:51:00,27.0,11.0,-100.00,ESE,110,4.0,9.0,51,0.00,,,0.00,0.000000,,2013-02-17 10:51:00,
2013-02-17 04:21:00,26.0,9.0,-100.00,ESE,117,4.0,8.0,49,0.00,,,0.00,0.000000,,2013-02-17 11:21:00,
2013-02-17 04:41:00,26.0,9.0,-100.00,ESE,117,4.0,8.0,49,0.00,,,0.00,0.000000,,2013-02-17 11:41:00,
2013-02-17 04:52:00,26.0,9.0,-100.00,ESE,117,4.0,8.0,49,0.00,,,0.00,0.000000,,2013-02-17 11:52:00,
2013-02-17 05:22:00,27.0,12.0,-100.00,ESE,123,4.0,7.0,52,0.00,,,0.00,0.000000,,2013-02-17 12:22:00,
2013-02-17 05:32:00,27.0,12.0,-100.00,ESE,123,4.0,7.0,52,0.00,,,0.00,0.000000,,2013-02-17 12:32:00,
2013-02-17 05:42:00,27.0,12.0,-100.00,ESE,123,4.0,7.0,52,0.00,,,0.00,0.000000,,2013-02-17 12:42:00,
2013-02-17 05:52:00,27.0,12.0,-100.00,ESE,123,4.0,7.0,52,0.00,,,0.00,0.000000,,2013-02-17 12:52:00,
2013-02-17 06:21:00,26.0,10.0,-100.00,ESE,107,4.0,7.0,50,0.00,,,0.00,0.000000,,2013-02-17 13:21:00,
2013-02-17 06:32:00,26.0,10.0,-100.00,ESE,107,4.0,7.0,50,0.00,,,0.00,0.000000,,2013-02-17 13:32:00,
2013-02-17 06:41:00,26.0,10.0,-100.00,ESE,107,4.0,7.0,50,0.00,,,0.00,0.000000,,2013-02-17 13:41:00,
2013-02-17 06:51:00,26.0,10.0,-100.00,ESE,107,4.0,7.0,50,0.00,,,0.00,0.000000,,2013-02-17 13:51:00,
2013-02-17 07:21:00,27.0,13.0,-100.00,ESE,122,5.0,8.0,56,0.00,,,0.00,0.000000,,2013-02-17 14:21:00,
2013-02-17 07:32:00,27.0,13.0,-100.00,ESE,122,5.0,8.0,56,0.00,,,0.00,0.000000,,2013-02-17 14:32:00,
2013-02-17 07:42:00,27.0,13.0,-100.00,ESE,122,5.0,8.0,56,0.00,,,0.00,0.000000,,2013-02-17 14:42:00,
2013-02-17 07:52:00,27.0,13.0,-100.00,ESE,122,5.0,8.0,56,0.00,,,0.00,0.000000,,2013-02-17 14:52:00,
2013-02-17 08:21:00,27.0,9.0,-100.00,East,79,4.0,8.0,46,0.00,,,0.00,0.000000,,2013-02-17 15:21:00,
2013-02-17 08:31:00,27.0,9.0,-100.00,East,79,4.0,8.0,46,0.00,,,0.00,0.000000,,2013-02-17 15:31:00,
2013-02-17 08:41:00,27.0,9.0,-100.00,East,79,4.0,8.0,46,0.00,,,0.00,0.000000,,2013-02-17 15:41:00,
2013-02-17 08:52:00,27.0,9.0,-100.00,East,79,4.0,8.0,46,0.00,,,0.00,0.000000,,2013-02-17 15:52:00,
2013-02-17 09:21:00,29.0,16.0,-100.00,WNW,298,2.0,7.0,59,0.00,,,0.00,30.000000,,2013-02-17 16:21:00,
2013-02-17 09:31:00,29.0,16.0,-100.00,WNW,298,2.0,7.0,59,0.00,,,0.00,30.000000,,2013-02-17 16:31:00,
2013-02-17 09:41:00,29.0,16.0,-100.00,WNW,298,2.0,7.0,59,0.00,,,0.00,30.000000,,2013-02-17 16:41:00,
2013-02-17 09:51:00,29.0,16.0,-100.00,WNW,298,2.0,7.0,59,0.00,,,0.00,30.000000,,2013-02-17 16:51:00,
2013-02-17 10:21:00,29.0,10.0,-100.00,ESE,109,1.0,7.0,45,0.00,,,0.00,136.000000,,2013-02-17 17:21:00,
2013-02-17 10:41:00,29.0,10.0,-100.00,ESE,109,1.0,7.0,45,0.00,,,0.00,136.000000,,2013-02-17 17:41:00,
2013-02-17 10:52:00,29.0,10.0,-100.00,ESE,109,1.0,7.0,45,0.00,,,0.00,136.000000,,2013-02-17 17:52:00,
2013-02-17 11:21:00,32.0,6.0,-100.00,North,349,1.0,4.0,33,-99.99,,,0.00,236.000000,,2013-02-17 18:21:00,
2013-02-17 12:21:00,41.0,11.0,-100.00,North,7,2.0,4.0,29,-99.99,,,0.00,432.000000,,2013-02-17 19:21:00,
2013-02-17 12:32:00,41.0,11.0,-100.00,North,7,2.0,4.0,29,-99.99,,,0.00,432.000000,,2013-02-17 19:32:00,
2013-02-17 12:41:00,41.0,11.0,-100.00,North,7,2.0,4.0,29,-99.99,,,0.00,432.000000,,2013-02-17 19:41:00,
2013-02-17 12:51:00,41.0,11.0,-100.00,North,7,2.0,4.0,29,-99.99,,,0.00,432.000000,,2013-02-17 19:51:00,
2013-02-17 13:21:00,44.0,14.0,-100.00,NNW,339,4.0,6.0,29,0.00,,,0.00,711.000000,,2013-02-17 20:21:00,
2013-02-17 13:32:00,44.0,14.0,-100.00,NNW,339,4.0,6.0,29,0.00,,,0.00,711.000000,,2013-02-17 20:32:00,
2013-02-17 13:42:00,44.0,14.0,-100.00,NNW,339,4.0,6.0,29,0.00,,,0.00,711.000000,,2013-02-17 20:42:00,
2013-02-17 13:52:00,44.0,14.0,-100.00,NNW,339,4.0,6.0,29,0.00,,,0.00,711.000000,,2013-02-17 20:52:00,
2013-02-17 14:21:00,46.0,7.0,-100.00,SW,232,3.0,7.0,20,0.00,,,0.00,533.000000,,2013-02-17 21:21:00,
2013-02-17 14:31:00,46.0,7.0,-100.00,SW,232,3.0,7.0,20,0.00,,,0.00,533.000000,,2013-02-17 21:31:00,
2013-02-17 14:41:00,46.0,7.0,-100.00,SW,232,3.0,7.0,20,0.00,,,0.00,533.000000,,2013-02-17 21:41:00,
2013-02-17 14:52:00,46.0,7.0,-100.00,SW,232,3.0,7.0,20,0.00,,,0.00,533.000000,,2013-02-17 21:52:00,
2013-02-17 15:21:00,51.0,9.0,-100.00,SW,218,9.0,9.0,18,0.00,,,0.00,479.000000,,2013-02-17 22:21:00,
2013-02-17 15:32:00,51.0,9.0,-100.00,SW,218,9.0,9.0,18,0.00,,,0.00,479.000000,,2013-02-17 22:32:00,
2013-02-17 15:41:00,51.0,9.0,-100.00,SW,218,9.0,9.0,18,0.00,,,0.00,479.000000,,2013-02-17 22:41:00,
2013-02-17 15:52:00,51.0,9.0,-100.00,SW,218,9.0,9.0,18,0.00,,,0.00,479.000000,,2013-02-17 22:52:00,
2013-02-17 16:21:00,53.0,11.0,-100.00,SW,221,10.0,19.0,18,0.00,,,0.00,594.000000,,2013-02-17 23:21:00,
2013-02-17 16:31:00,53.0,11.0,-100.00,SW,221,10.0,19.0,18,0.00,,,0.00,594.000000,,2013-02-17 23:31:00,
2013-02-17 16:41:00,53.0,11.0,-100.00,SW,221,10.0,19.0,18,0.00,,,0.00,594.000000,,2013-02-17 23:41:00,
2013-02-17 16:52:00,53.0,11.0,-100.00,SW,221,10.0,19.0,18,0.00,,,0.00,594.000000,,2013-02-17 23:52:00,
2013-02-17 17:22:00,51.0,14.0,-100.00,SW,221,9.0,23.0,22,0.00,,,0.00,557.000000,,2013-02-18 00:22:00,
2013-02-17 17:31:00,51.0,14.0,-100.00,SW,221,9.0,23.0,22,0.00,,,0.00,557.000000,,2013-02-18 00:31:00,
2013-02-17 17:41:00,51.0,14.0,-100.00,SW,221,9.0,23.0,22,0.00,,,0.00,557.000000,,2013-02-18 00:41:00,
2013-02-17 17:52:00,51.0,14.0,-100.00,SW,221,9.0,23.0,22,0.00,,,0.00,557.000000,,2013-02-18 00:52:00,
2013-02-17 18:21:00,50.0,16.0,-100.00,SW,224,8.0,21.0,26,0.00,,,0.00,327.000000,,2013-02-18 01:21:00,
2013-02-17 18:31:00,50.0,16.0,-100.00,SW,224,8.0,21.0,26,0.00,,,0.00,327.000000,,2013-02-18 01:31:00,
2013-02-17 18:41:00,50.0,16.0,-100.00,SW,224,8.0,21.0,26,0.00,,,0.00,327.000000,,2013-02-18 01:41:00,
2013-02-17 18:51:00,50.0,16.0,-100.00,SW,224,8.0,21.0,26,0.00,,,0.00,327.000000,,2013-02-18 01:51:00,
2013-02-17 19:21:00,45.0,18.0,-100.00,West,262,4.0,17.0,34,0.00,,,0.00,88.000000,,2013-02-18 02:21:00,
2013-02-17 19:32:00,45.0,18.0,-100.00,West,262,4.0,17.0,34,0.00,,,0.00,88.000000,,2013-02-18 02:32:00,
2013-02-17 19:41:00,45.0,18.0,-100.00,West,262,4.0,17.0,34,0.00,,,0.00,88.000000,,2013-02-18 02:41:00,
2013-02-17 19:52:00,45.0,18.0,-100.00,West,262,4.0,17.0,34,0.00,,,0.00,88.000000,,2013-02-18 02:52:00,
2013-02-17 20:21:00,41.0,18.0,-100.00,West,259,3.0,12.0,39,0.00,,,0.00,0.000000,,2013-02-18 03:21:00,
2013-02-17 20:31:00,41.0,18.0,-100.00,West,259,3.0,12.0,39,0.00,,,0.00,0.000000,,2013-02-18 03:31:00,
2013-02-17 20:42:00,41.0,18.0,-100.00,West,259,3.0,12.0,39,0.00,,,0.00,0.000000,,2013-02-18 03:42:00,
2013-02-17 20:51:00,41.0,18.0,-100.00,West,259,3.0,12.0,39,0.00,,,0.00,0.000000,,2013-02-18 03:51:00,
2013-02-17 21:21:00,40.0,19.0,-100.00,WNW,300,6.0,10.0,43,0.00,,,0.00,0.000000,,2013-02-18 04:21:00,
2013-02-17 21:32:00,40.0,19.0,-100.00,WNW,300,6.0,10.0,43,0.00,,,0.00,0.000000,,2013-02-18 04:32:00,
2013-02-17 21:41:00,40.0,19.0,-100.00,WNW,300,6.0,10.0,43,0.00,,,0.00,0.000000,,2013-02-18 04:41:00,
2013-02-17 21:51:00,40.0,19.0,-100.00,WNW,300,6.0,10.0,43,0.00,,,0.00,0.000000,,2013-02-18 04:51:00,
2013-02-17 22:21:00,39.0,19.0,-100.00,WNW,292,8.0,14.0,45,0.00,,,0.00,0.000000,,2013-02-18 05:21:00,
2013-02-17 22:31:00,39.0,19.0,-100.00,WNW,292,8.0,14.0,45,0.00,,,0.00,0.000000,,2013-02-18 05:31:00,
2013-02-17 22:41:00,39.0,19.0,-100.00,WNW,292,8.0,14.0,45,0.00,,,0.00,0.000000,,2013-02-18 05:41:00,
2013-02-17 22:51:00,39.0,19.0,-100.00,WNW,292,8.0,14.0,45,0.00,,,0.00,0.000000,,2013-02-18 05:51:00,
2013-02-17 23:21:00,38.0,18.0,-100.00,NW,306,8.0,30.0,44,0.00,,,0.00,0.000000,,2013-02-18 06:21:00,
2013-02-17 23:31:00,38.0,18.0,-100.00,NW,306,8.0,30.0,44,0.00,,,0.00,0.000000,,2013-02-18 06:31:00,
2013-02-17 23:41:00,38.0,18.0,-100.00,NW,306,8.0,30.0,44,0.00,,,0.00,0.000000,,2013-02-18 06:41:00,
2013-02-17 23:51:00,38.0,18.0,-100.00,NW,306,8.0,30.0,44,0.00,,,0.00,0.000000,,2013-02-18 06:51:00,